CZ-2C DEB, 40290

Orbit data source: Space-Track

CZ-2C DEB, 40290 is space debris in SSO originally from a launch on Mon, 27 Oct 2014 UTC launched from the Jiuquan Satellite Launch Center, China (JSC). Debris objects in space refer to the collection of defunct objects orbiting the Earth. Examples of debris include non-operational satellites, rocket bodies, and fragments generated from explosions, collisions, or faulty payload assembly.

Loading next visibility...
Identifier
40290, 2014-066E
Orbit
SSO
Country
Flag of CNCN / PRC
Related business
Manufacturer
CALT
Mission
Spacecraft
Bus & Motor
Unknown
Mass
1 kg wet, 1 kg dry
Launch date (UTC)
2014-10-27 (11 years ago)
Launch vehicle
Unknown
Launch site
Jiuquan Satellite Launch Center, China (JSC)
Object type
Payload
Rocket body
Debris
Shape & HBR
Cone, 0.1 m
Radar Cross Section
0.025 m², Small (<0.1 m²)

Expand to show TLE details & history
Last TLE update: 8 hours ago

TLE from 8 hours ago
0 CZ-2C DEB
1 40290U 14066E   26061.89120437  .00023749  00000-0  20754-2 0  9996
2 40290  97.9301  37.6467 0045045 181.2020 178.9100 14.95978029604078
Epoch: 2026-03-02T21:23Z
TLE epoch observation values (Epoch: 2026-03-02T21:23:20.057Z)
Latitude
-0.00001°
Longitude
-83.86498°
Altitude
613.722 km
Speed
7.535 km/s
True Right ascension
02h 30m 35s
True Declination
0° 00' 00"
Sunlit
Object was in daylight at epoch
Visualization orbit readout
Latitude
Unknown
Longitude
Unknown
Altitude
Unknown
Speed
Unknown
Apparent Right ascension
Unknown
Apparent Declination
Unknown
Sunlit
N/A
Visualization observer readout
Local Sidereal Time
09:28:07
Azimuth
Unknown
Elevation
Unknown
Doppler factor
Unknown
Orbital elements
Apogee altitude
607.686 km
Perigee altitude
545.033 km
Semi-major axis
6,954.497 km
Eccentricity
0.0045
Inclination
97.9301°
RAAN
37.6467°
Arg. of periapsis
181.202°
True anomaly
178.91976°
Mean anomaly
178.91°
Eccentric anomaly
178.91489°
Mean motion
3.74235 °/min
Orbital period
96.2 mins
BSTAR
0.0020754
Loading maneuver chart data...
Computing Atmospheric mass density...
Loading historical data...
Loading historical data...
Loading historical data...
Loading historical data...
Loading historical data...
Loading historical data...
Loading historical data...
Other satellites on launch #66 in the year 2014 (2014-10-27 UTC)

Documentation

Showing up to 5 results
|